Theta_e
297 298 298 298 298 298 298 298 298 299 300 301 302 305 312 314 310 309 307 304 308 313 317 316 314 317 315 309 306 308 308 308 307 307 307 307 307 310 311 308 309 311 308 308 308 307 309 309 309 310 307 306 307 306 308 310 312 314 314 311 312 316 316 312 315 321 318 312 308 305 306 309 309 309 308 309 312 317 320 320 320 316 314 316 314 315 325
297 297 297 298 298 297 298 298 298 299 300 300 301 308 315 314 313 315 307 303 309 314 312 314 315 316 315 313 311 309 307 307 306 307 308 307 307 310 311 307 307 307 306 308 307 305 307 308 307 308 307 306 307 308 309 312 314 314 314 313 310 313 316 313 313 318 317 314 315 313 312 314 310 308 308 308 311 314 314 314 313 312 314 317 317 319 324
297 297 297 297 298 297 297 297 298 299 300 300 302 307 312 310 312 316 310 304 309 312 310 311 314 314 313 314 314 312 309 308 307 306 307 307 307 308 308 306 307 308 307 310 311 308 306 306 307 309 308 308 308 309 309 311 315 316 315 313 310 309 315 315 312 314 314 314 317 318 316 312 308 308 307 306 309 310 309 311 311 312 314 314 317 320 319
297 297 297 297 297 297 297 297 298 299 299 300 301 303 307 309 310 315 315 310 307 308 307 309 312 311 309 311 312 309 309 310 308 306 306 306 306 307 307 307 309 309 308 311 313 310 307 307 309 313 313 311 310 310 309 310 313 315 313 315 315 311 311 313 315 316 314 312 314 314 312 309 307 308 308 308 310 311 311 311 310 314 316 312 315 317 312
296 296 296 297 297 296 296 296 297 299 299 300 301 302 306 309 308 309 311 311 311 312 309 308 311 309 306 308 309 308 310 311 310 308 306 306 308 307 307 307 307 308 309 310 310 309 309 310 310 312 312 313 312 309 308 308 310 311 309 313 317 312 309 311 313 314 312 310 311 309 308 308 308 309 310 310 312 311 310 310 311 312 310 308 315 317 310
296 296 296 296 297 296 296 295 297 299 299 299 303 306 305 305 306 304 302 305 309 310 308 308 310 308 306 309 309 307 310 311 310 309 307 308 308 307 307 307 306 307 307 308 308 309 309 309 309 309 308 311 313 310 306 305 307 309 308 311 314 311 309 309 308 311 313 310 309 308 307 308 308 309 309 310 311 310 308 311 314 311 307 308 314 317 313
296 296 296 296 296 297 295 295 297 298 299 299 301 305 303 303 306 305 302 303 306 307 306 307 309 309 308 311 309 306 307 308 306 305 306 308 308 306 307 307 306 307 309 311 310 310 308 306 308 309 307 308 310 309 307 305 305 307 308 309 310 309 311 310 306 308 311 310 310 309 307 308 308 308 309 308 309 310 308 311 313 310 308 308 309 312 313
295 295 296 295 296 296 295 296 296 297 298 299 299 300 301 303 305 304 305 307 308 308 308 308 309 309 308 309 308 305 305 305 304 304 304 305 307 306 307 307 305 307 312 313 310 309 310 306 305 307 306 306 309 308 306 306 307 307 306 306 306 307 310 311 307 306 309 311 311 308 307 308 307 307 310 308 308 308 307 307 309 308 308 308 307 308 309
295 295 295 295 295 296 296 296 296 296 297 298 298 298 297 298 299 299 303 308 307 307 308 307 308 309 308 308 308 307 307 304 302 304 304 303 305 305 305 306 305 306 308 308 305 307 311 310 309 310 308 306 309 308 305 304 305 307 306 305 306 307 308 309 308 306 307 309 309 308 307 306 304 304 307 307 308 310 309 307 308 308 308 307 307 306 308
295 295 295 295 295 295 296 296 295 295 296 297 297 296 295 297 298 297 300 305 305 306 306 306 306 306 304 305 306 306 308 305 302 304 304 303 303 304 304 305 305 305 305 304 301 301 305 309 310 309 307 305 307 307 306 304 302 306 307 304 306 307 307 308 308 306 306 307 307 308 307 305 306 308 307 307 307 308 309 308 307 308 307 307 308 306 309
294 294 294 295 294 295 296 296 295 295 295 295 295 294 293 295 297 296 299 304 304 303 304 305 306 306 303 302 303 304 306 306 303 303 304 304 302 304 306 304 304 305 304 301 299 298 299 303 304 303 303 304 305 304 304 303 302 305 306 304 306 308 306 306 306 305 308 306 303 305 306 304 308 311 308 306 305 305 306 307 307 307 307 307 307 305 307
294 294 294 294 294 294 295 295 295 294 294 295 295 294 294 295 295 297 301 304 304 303 304 303 302 303 302 301 302 303 304 304 303 301 302 304 303 303 304 302 302 304 301 297 297 299 300 300 302 303 303 304 305 303 302 302 303 304 304 301 303 306 305 304 304 304 306 304 302 305 306 303 306 309 305 303 304 304 305 306 307 308 307 306 305 306 308
294 294 294 294 294 294 294 295 296 295 294 294 294 294 295 295 296 297 300 303 304 304 304 303 301 300 301 301 301 303 303 302 302 301 301 302 302 301 300 300 299 299 297 297 299 302 303 302 304 305 303 304 307 304 301 302 304 303 302 301 302 304 304 304 304 303 303 303 304 307 305 303 305 308 306 305 306 304 304 305 306 305 305 305 305 308 310
294 294 294 294 294 294 294 294 295 295 294 294 294 294 295 295 296 296 297 300 302 301 300 301 302 300 301 301 301 303 303 303 304 303 301 300 300 300 299 299 298 295 295 297 302 305 306 306 306 305 302 303 305 303 300 301 303 303 302 301 301 303 304 303 302 303 303 304 306 306 303 303 306 308 306 305 305 304 303 304 305 304 304 306 306 307 309
294 293 293 294 293 294 294 294 295 295 294 293 293 294 294 294 295 296 295 297 301 300 298 299 299 299 302 301 300 301 304 303 302 302 302 300 300 299 299 298 296 294 295 299 304 306 305 304 304 304 303 303 302 301 301 302 301 302 302 301 301 301 303 304 303 303 303 303 305 305 304 306 308 307 305 304 305 303 301 302 304 304 303 305 305 305 308
293 293 293 293 293 293 293 294 294 295 294 293 293 293 293 293 295 296 295 296 299 299 298 296 296 298 300 300 298 299 300 300 301 302 304 303 301 299 298 296 294 296 300 304 306 306 303 302 302 303 305 304 301 301 302 302 302 302 303 304 304 302 302 303 303 304 303 303 304 305 306 307 306 306 306 305 304 302 301 303 306 303 302 305 304 303 305
293 293 293 294 293 293 293 293 294 294 295 294 293 292 293 293 294 295 296 296 297 299 298 296 296 298 299 299 299 298 298 298 299 300 301 301 300 300 298 296 296 298 300 304 306 304 302 302 302 303 304 302 300 302 302 301 302 304 304 305 307 306 305 304 303 304 305 304 304 305 304 305 305 305 307 307 303 301 302 307 308 304 303 305 303 302 304
293 293 293 293 293 293 293 293 293 294 294 294 293 292 292 292 293 294 295 295 296 299 298 295 296 298 297 296 297 297 297 297 298 297 298 299 299 298 296 296 297 298 298 301 304 304 303 303 301 302 304 302 299 301 301 301 303 303 301 301 304 305 304 302 303 305 305 303 303 304 304 304 305 305 307 306 302 302 305 309 308 304 304 304 302 303 305
293 293 293 293 293 293 293 293 293 294 294 294 293 293 292 292 292 293 294 294 295 297 296 293 294 296 295 295 297 297 296 296 296 295 298 300 297 295 295 296 296 297 298 301 302 301 301 302 301 301 303 303 299 299 300 300 301 301 300 300 302 304 303 301 302 303 304 303 303 303 303 304 304 306 307 304 301 303 306 307 304 303 304 304 302 303 303
293 293 293 293 293 293 293 293 293 294 294 293 293 293 293 292 292 292 293 293 293 294 294 293 294 296 295 295 296 296 296 297 296 295 297 299 297 297 300 299 297 299 300 302 302 300 300 302 300 300 302 302 299 299 300 299 299 299 299 299 301 302 301 302 302 301 301 302 303 302 303 303 303 303 303 302 301 303 303 302 302 303 304 303 303 304 303
293 293 293 293 293 293 293 293 293 294 294 294 293 293 292 292 292 291 292 292 292 294 295 294 294 295 295 294 294 295 295 296 296 295 296 297 296 298 299 298 297 298 299 300 300 298 298 300 299 298 300 300 298 298 299 300 300 299 297 297 299 299 299 301 302 301 300 302 304 305 305 303 303 302 300 300 301 300 299 300 302 304 304 303 302 303 304
293 293 293 293 293 293 293 293 293 294 294 293 293 293 293 292 292 291 292 292 292 294 295 294 293 293 293 294 294 294 294 295 295 294 295 296 297 297 297 298 299 298 297 299 298 296 297 299 298 298 299 300 299 298 298 298 300 300 297 297 298 299 300 300 300 299 299 301 302 303 302 302 302 304 304 302 300 298 299 300 302 303 304 304 302 301 303
293 293 293 293 293 293 293 293 293 293 293 293 293 293 293 293 292 292 292 291 292 293 293 292 292 293 294 294 294 294 294 294 294 294 294 296 298 298 297 298 298 297 298 299 298 298 299 298 297 297 298 298 299 299 298 297 299 299 298 297 299 300 299 298 299 299 299 299 298 297 298 299 301 302 302 301 298 297 298 300 302 303 303 302 301 300 301
293 293 293 293 293 293 293 293 293 293 293 293 293 293 293 293 292 292 292 292 292 294 294 293 294 295 295 294 293 293 294 294 294 294 293 294 297 300 299 296 295 297 300 299 296 298 299 297 295 297 298 297 297 298 297 297 297 297 297 297 300 300 297 296 298 298 298 299 299 298 297 299 298 298 298 297 297 296 297 299 301 301 300 300 300 300 301
293 293 293 293 293 293 293 293 293 293 293 293 294 293 293 293 293 292 292 293 293 293 295 297 297 295 294 294 293 293 293 293 293 293 293 293 295 297 298 295 294 295 297 296 295 297 299 297 296 297 298 297 296 296 296 296 296 296 296 298 299 298 296 296 298 298 297 298 299 297 296 297 296 296 296 296 296 297 298 299 299 298 298 298 298 298 299
293 293 293 293 293 293 293 293 293 293 294 294 294 293 293 294 293 292 292 293 293 292 295 298 298 294 293 294 293 292 293 293 293 293 293 293 293 294 295 295 294 294 294 294 296 299 300 299 298 298 298 297 296 296 298 296 295 296 296 297 298 297 296 297 298 297 297 297 297 296 296 296 297 297 297 297 297 298 298 298 297 297 297 298 297 296 296
293 293 293 293 293 293 293 293 293 294 294 294 293 294 294 294 293 293 292 293 293 293 295 296 296 294 292 293 293 292 293 293 293 293 293 293 293 293 293 293 294 296 296 296 297 298 298 299 298 297 297 297 296 297 298 296 295 297 297 296 297 297 297 297 297 296 297 297 296 296 296 296 296 296 296 297 297 297 296 296 296 296 296 297 298 296 295
293 293 293 293 293 293 293 293 293 294 294 293 293 294 295 294 293 293 293 293 293 293 294 294 293 293 293 293 293 292 293 294 293 293 294 293 293 293 292 292 293 297 298 298 298 297 298 299 298 297 297 297 296 296 297 296 297 298 297 297 297 297 296 296 297 297 297 296 296 295 295 295 295 295 295 296 296 295 295 295 295 295 296 296 297 297 297
293 293 293 293 293 292 292 292 292 293 294 293 293 294 295 295 294 294 294 294 293 294 293 293 294 294 293 293 293 293 293 294 294 294 294 293 293 293 292 291 293 297 299 299 299 299 300 300 298 298 298 298 297 297 297 297 298 298 297 297 298 298 296 296 296 296 296 295 295 295 295 295 295 295 295 295 294 295 295 294 294 295 295 295 296 297 296
294 293 293 293 292 291 291 292 292 293 294 294 293 294 295 295 294 294 295 294 294 294 293 293 295 295 293 292 293 293 293 293 294 294 293 293 293 293 292 293 294 296 298 299 298 298 300 300 298 298 297 296 296 297 297 296 298 299 298 296 296 296 296 295 295 295 295 295 294 294 294 294 294 294 294 294 294 294 295 295 295 295 295 295 296 297 296
293 294 293 292 291 290 290 291 292 292 294 294 293 294 296 296 295 294 295 294 294 294 293 293 293 293 293 293 293 292 292 293 293 293 293 293 293 293 293 294 295 295 297 298 296 296 298 299 299 298 297 296 297 298 297 296 297 299 297 295 295 295 295 295 294 294 294 293 293 293 293 293 293 294 294 294 294 294 294 295 294 294 295 295 296 296 295
294 293 292 290 290 289 290 291 292 292 293 294 293 294 295 295 295 294 294 295 294 293 293 294 293 292 294 295 293 291 292 294 293 292 293 294 294 293 293 294 294 295 298 299 297 297 298 298 298 297 296 297 298 297 296 296 297 297 296 295 294 294 294 294 293 293 293 293 293 293 294 294 294 294 295 295 294 293 293 294 294 293 294 295 294 295 295
294 292 290 289 290 290 290 291 291 292 294 294 294 294 294 294 295 295 295 295 293 292 293 294 292 291 293 294 293 292 293 296 296 295 294 295 293 292 294 295 295 295 296 297 297 297 297 297 297 296 295 295 297 297 296 297 297 296 295 294 294 293 293 293 293 293 294 294 294 294 294 295 295 294 294 294 293 293 294 294 294 294 294 295 296 297 296
292 290 289 290 291 291 292 293 294 295 295 294 294 293 293 293 294 294 295 294 293 292 294 294 292 292 293 294 295 295 293 295 297 295 295 295 293 291 294 297 297 295 295 296 297 297 296 297 298 297 295 294 294 296 297 298 297 295 294 294 293 293 293 293 294 295 295 295 294 294 294 294 295 295 294 294 295 295 294 293 293 295 296 297 297 297 296
291 289 290 292 293 293 294 295 295 295 294 293 293 293 293 294 294 294 294 293 292 293 295 293 292 293 295 296 299 297 293 294 296 295 295 295 292 291 292 296 296 295 293 294 295 295 296 297 296 295 294 293 294 297 299 297 296 295 294 294 293 293 293 293 294 295 295 295 294 295 295 295 296 295 295 296 295 295 294 294 294 296 296 296 297 296 296
290 289 291 293 295 295 294 294 294 294 293 292 292 292 293 295 294 294 294 293 292 295 295 292 291 292 294 296 298 296 293 295 296 295 294 294 293 294 295 294 294 295 293 294 295 295 294 295 294 293 293 294 296 299 300 297 295 295 294 293 293 292 293 294 294 295 295 294 294 295 295 296 296 296 295 295 295 294 294 295 295 295 295 296 297 296 296
290 290 292 294 295 295 294 293 293 292 292 292 292 293 294 295 294 294 294 294 294 294 293 292 293 293 291 293 296 295 294 295 295 295 297 296 293 294 294 293 293 294 294 296 297 295 293 294 293 293 295 296 297 298 298 296 295 295 293 292 293 293 293 294 295 295 295 294 294 295 295 294 295 295 295 295 294 294 294 294 294 295 296 297 296 295 296
290 291 291 292 294 296 295 293 292 291 292 293 293 294 294 294 294 294 294 294 295 294 292 292 294 293 290 293 295 294 294 294 293 293 297 296 293 292 294 294 294 293 292 294 295 293 293 295 294 293 296 298 296 296 297 296 295 294 292 292 293 293 293 294 295 295 295 294 294 294 294 294 294 294 294 294 294 294 294 294 295 296 297 296 295 294 295
291 291 290 291 294 295 294 292 291 292 293 293 293 294 294 293 294 295 294 293 293 294 293 293 293 291 291 295 296 293 292 294 294 294 295 294 293 293 293 293 293 292 291 293 294 292 293 296 295 294 296 299 298 297 296 295 292 292 292 293 293 294 294 295 295 294 294 294 294 294 294 294 294 294 294 294 294 294 295 296 296 296 296 295 294 293 293
291 290 290 291 293 292 291 291 292 293 294 293 293 293 293 294 294 295 294 293 294 294 294 293 292 290 291 293 296 294 292 292 294 295 294 293 293 293 292 291 292 292 291 294 295 294 293 295 295 294 296 299 298 295 293 292 291 292 293 293 294 294 294 294 295 294 294 294 294 294 294 294 294 294 294 294 295 295 296 295 295 295 294 293 293 292 292
291 290 290 291 291 291 291 292 292 293 293 293 292 293 293 294 293 293 293 295 296 296 294 292 293 293 292 291 293 295 294 292 292 292 293 294 294 293 292 291 291 291 292 294 295 294 294 294 294 295 298 299 297 293 291 291 292 292 293 293 294 294 294 294 294 294 294 294 294 293 293 293 293 294 294 294 295 295 295 294 293 293 293 292 292 292 291
290 291 291 291 291 291 291 292 292 293 293 293 293 293 293 292 292 292 293 294 294 294 294 293 295 296 295 292 293 294 293 291 292 292 292 294 295 293 292 292 291 292 294 295 294 294 295 295 295 297 299 297 294 292 291 292 292 292 293 293 293 293 293 294 294 294 294 293 293 293 293 293 293 293 294 294 293 293 293 292 292 292 291 291 291 290 290
291 291 291 291 291 291 291 291 291 293 294 294 293 292 292 293 293 292 293 294 294 294 294 294 294 294 293 292 293 293 292 290 292 293 292 292 293 293 293 293 292 292 293 294 294 294 295 295 297 299 299 295 292 291 292 292 292 292 293 293 293 294 294 294 294 294 293 293 293 293 293 292 292 292 293 293 292 292 292 292 292 291 291 290 290 289 289
291 291 290 290 291 291 291 291 291 291 293 293 292 291 292 294 294 293 294 295 295 295 295 293 292 293 294 292 292 293 293 292 292 293 292 291 292 293 293 294 294 293 292 293 295 294 292 293 296 297 295 292 291 291 291 292 292 293 293 293 294 294 294 294 294 293 293 292 292 292 292 292 292 292 292 293 292 292 292 291 291 290 290 289 289 289 288
292 292 291 291 292 291 290 290 291 291 291 293 294 293 293 293 294 294 294 295 294 293 293 293 293 294 295 293 291 292 294 293 291 292 292 291 292 292 292 294 296 294 292 293 295 294 291 293 296 296 293 292 291 291 291 292 293 293 294 295 295 294 294 294 294 293 293 292 292 292 292 292 292 292 292 292 292 292 291 291 290 289 289 288 288 288 288
291 291 290 291 293 292 290 290 292 292 291 292 294 294 292 292 293 293 292 293 293 292 292 293 293 294 295 294 291 291 293 292 291 291 292 291 291 293 292 291 293 295 294 294 295 295 294 295 296 294 292 291 290 290 291 292 292 293 294 294 295 295 294 294 294 293 292 292 292 292 292 292 292 292 292 291 291 291 291 290 289 289 288 288 288 287 287
291 290 290 292 294 292 291 291 293 292 290 291 293 294 292 291 291 291 290 290 291 291 291 292 293 293 293 292 290 292 294 293 291 292 292 290 291 293 293 291 292 295 295 295 296 297 296 295 294 293 291 290 290 290 291 292 292 292 293 293 294 294 294 294 294 293 292 292 292 292 292 292 292 292 291 291 291 291 290 290 289 289 288 288 288 287 287
291 291 291 293 294 293 292 292 292 291 291 291 292 292 290 289 290 291 290 290 291 291 291 292 293 293 293 292 291 292 293 292 291 291 292 290 290 291 292 292 293 293 291 293 296 297 296 294 293 292 290 289 289 290 292 293 293 292 292 292 293 294 294 294 293 293 292 292 292 292 292 292 292 292 292 291 291 291 290 290 289 289 289 289 288 288 287
291 291 291 292 292 292 292 290 290 291 292 291 291 290 290 289 290 291 290 290 291 291 291 292 292 292 292 292 291 291 291 290 289 290 291 291 290 290 291 293 294 293 292 293 296 297 295 294 292 291 289 289 290 291 292 292 292 292 291 292 292 293 293 293 293 292 292 292 292 292 292 292 292 292 291 291 290 291 291 290 290 290 289 289 288 287 287
291 291 291 291 291 292 291 289 290 292 292 291 290 290 290 290 290 290 289 290 291 292 291 291 291 290 291 291 291 291 291 291 290 290 290 291 291 291 291 292 294 295 295 295 295 294 293 292 290 290 290 290 290 291 292 292 291 291 291 291 292 292 292 293 292 292 292 292 292 292 292 292 291 291 291 290 290 290 290 290 290 289 288 288 287 287 286
291 290 290 290 291 292 292 290 291 292 291 290 290 291 290 290 291 291 290 290 290 291 291 291 291 291 291 292 292 291 290 290 291 290 290 290 291 292 293 293 295 296 297 295 293 292 292 291 290 290 291 291 291 292 292 292 291 291 291 291 292 292 292 292 292 292 292 292 291 291 291 291 291 290 290 290 290 290 289 289 289 288 288 287 287 287 286
291 291 291 291 291 290 290 290 290 291 290 290 290 290 290 290 291 291 289 288 289 291 293 293 292 291 292 293 292 291 290 290 291 291 290 290 291 293 294 296 296 295 295 294 293 292 292 291 290 289 290 291 292 292 291 291 291 291 291 292 292 292 292 292 292 292 292 292 291 291 291 290 290 290 290 290 289 289 288 287 288 288 287 287 287 286 286
Wind_Speed
32 32 32 31 32 33 32 33 34 35 34 29 24 14 3 2 3 6 16 18 7 5 2 3 3 0 3 2 2 2 1 1 2 3 3 2 2 2 1 1 1 1 1 2 3 2 2 3 2 2 2 3 2 4 6 4 2 4 1 2 1 1 2 2 3 4 4 6 5 4 3 4 4 1 2 3 2 3 4 4 2 2 2 2 2 2 5
33 33 32 31 32 32 32 32 32 31 30 27 19 7 1 0 4 4 14 18 5 4 1 2 1 3 3 4 3 2 1 1 1 1 2 2 1 1 1 1 1 0 1 2 2 1 1 1 1 1 2 2 2 4 7 5 3 3 1 1 0 1 0 1 2 4 6 6 6 5 5 3 2 2 2 1 3 5 3 1 3 0 3 4 4 4 6
33 33 34 33 32 33 32 31 30 28 27 25 15 3 1 2 1 3 10 16 10 4 3 3 2 2 3 3 4 4 2 2 1 1 2 1 1 1 1 1 1 1 2 3 3 2 1 1 1 1 1 1 2 5 8 6 3 1 0 1 1 1 1 2 2 2 3 2 3 3 2 2 1 2 3 1 3 5 1 1 3 1 3 3 4 3 4
33 33 34 33 32 33 32 31 30 27 25 23 13 3 1 2 2 3 6 9 8 2 1 3 3 1 2 2 3 1 2 4 2 1 1 1 1 2 2 2 2 3 3 3 3 3 2 1 1 2 1 2 2 4 5 5 4 4 5 4 2 2 1 3 5 6 6 6 6 5 2 1 2 2 3 3 0 3 4 3 3 4 3 2 5 3 2
32 33 34 34 33 34 34 33 30 26 24 22 11 3 3 2 1 2 3 4 4 3 3 4 3 0 1 0 2 1 2 4 4 2 1 1 2 3 2 3 2 1 2 3 0 2 3 3 1 1 1 3 3 4 2 3 6 5 5 5 3 4 1 2 4 5 6 6 6 4 2 3 4 3 4 6 3 2 5 4 4 4 3 4 7 6 4
31 32 33 33 33 34 35 35 31 26 24 20 9 2 3 3 1 1 1 1 1 2 4 3 3 3 0 1 1 3 3 3 2 3 3 3 3 2 2 4 3 0 1 3 1 1 3 3 0 1 1 2 4 5 2 2 6 5 4 4 3 5 2 2 3 3 5 4 5 3 2 3 4 4 6 7 4 5 6 7 6 6 5 8 7 8 8
30 31 32 33 33 34 36 36 33 28 22 17 12 5 2 2 2 2 1 1 1 2 4 3 2 3 2 1 2 3 4 4 3 3 3 4 4 2 1 3 4 3 2 4 3 1 1 1 2 1 0 1 2 3 2 2 4 5 4 3 2 3 2 2 3 2 5 4 5 3 3 3 3 5 8 6 6 8 8 7 6 7 9 9 5 7 9
29 30 31 32 32 33 35 36 35 30 22 16 15 9 4 2 1 3 3 3 1 2 3 3 2 3 3 2 2 2 2 3 4 3 1 2 4 3 3 2 3 3 3 4 1 4 5 2 2 4 2 2 1 1 2 2 3 5 3 1 2 1 2 1 3 1 5 5 4 3 5 5 5 7 7 5 5 6 6 6 5 5 7 9 5 6 9
28 29 29 30 31 32 33 34 35 32 25 17 11 7 7 3 1 1 2 2 3 2 2 3 3 3 3 2 2 3 2 3 4 4 1 2 2 3 1 1 0 3 4 3 2 4 4 5 5 6 5 2 3 2 2 3 2 4 1 1 2 1 1 1 3 1 5 4 5 6 3 3 7 8 7 7 7 6 6 5 5 6 6 7 6 5 7
27 28 28 29 29 30 31 32 33 32 28 21 9 5 11 7 2 3 2 0 3 3 2 3 3 1 2 2 2 2 3 4 3 1 2 4 4 3 1 2 2 3 3 3 5 7 5 6 6 5 5 3 3 3 3 4 2 1 2 1 1 3 2 1 2 2 5 4 4 3 3 5 7 7 8 11 11 9 7 4 4 7 7 6 6 6 5
26 27 27 27 27 28 29 30 31 30 29 24 11 7 12 7 2 3 3 1 3 2 1 3 3 1 2 4 3 2 4 6 5 1 2 3 5 4 3 5 3 0 1 1 5 7 7 7 4 3 3 1 1 1 1 1 2 3 4 1 1 2 3 3 3 2 5 5 2 2 2 5 7 5 6 10 10 10 10 8 7 7 5 4 4 3 3
25 26 26 26 26 26 27 27 28 27 26 23 16 14 16 9 1 1 4 2 3 3 2 1 1 0 3 4 3 3 4 5 4 1 2 2 5 5 5 6 4 0 2 6 7 5 4 3 2 3 4 5 4 3 3 2 4 3 4 4 2 2 3 2 1 2 3 2 3 2 4 7 5 4 3 3 3 5 8 8 7 5 4 5 4 4 4
24 24 24 25 25 25 25 25 26 25 23 21 20 21 20 13 3 2 4 2 2 2 2 2 1 1 3 4 3 4 4 5 5 2 1 2 3 4 4 3 1 3 6 7 7 4 1 2 3 3 3 6 6 5 3 3 5 4 2 4 4 4 3 2 1 1 1 1 3 3 6 5 5 6 4 1 2 2 1 4 6 4 2 3 4 5 5
22 22 23 24 24 23 23 24 24 24 22 20 20 22 22 17 8 1 2 3 1 2 1 2 4 4 4 4 4 4 4 5 6 3 1 1 1 2 2 1 4 8 6 3 4 4 2 1 3 2 3 4 4 4 4 3 5 4 2 3 5 5 3 2 1 2 2 2 2 3 4 6 6 4 2 1 1 1 1 2 4 5 2 2 1 4 4
22 22 23 23 23 22 22 22 22 23 23 20 18 20 22 20 12 3 1 3 1 2 1 1 2 4 5 4 3 3 4 5 5 4 3 2 1 1 2 5 10 10 3 1 2 2 1 0 1 1 2 1 0 2 3 3 3 2 2 0 3 4 3 3 3 2 2 2 3 3 3 4 5 4 4 2 3 3 2 2 1 3 2 1 0 3 4
21 22 22 22 22 21 21 21 21 22 23 21 17 18 21 20 15 8 2 2 2 1 1 1 2 2 2 3 2 3 2 2 3 3 4 4 4 4 5 7 10 7 3 3 2 3 2 0 2 2 2 3 2 1 2 1 3 4 4 5 5 3 1 3 3 1 1 3 2 2 2 4 5 5 6 4 3 3 2 2 1 3 3 2 0 4 5
21 22 21 21 21 20 19 19 20 20 22 22 18 17 19 19 16 10 4 2 2 1 3 1 1 1 1 2 2 2 1 1 2 1 2 3 4 5 7 8 7 5 4 3 2 2 2 1 2 1 2 3 2 1 2 0 1 4 5 5 5 4 4 3 3 2 2 3 3 3 3 4 3 3 6 5 2 5 4 1 4 5 5 3 2 2 5
21 21 21 21 20 20 18 18 18 18 20 22 19 15 16 19 16 10 5 2 2 2 3 1 3 1 2 1 2 2 1 1 2 1 2 2 2 3 4 5 4 4 3 3 3 2 2 1 1 2 2 3 0 1 2 0 1 2 2 2 2 2 2 1 2 2 2 3 3 3 3 3 3 4 6 4 1 4 2 3 5 4 6 4 3 3 5
21 20 20 20 19 19 18 17 18 18 17 20 19 14 14 17 17 12 6 2 1 1 4 3 1 2 2 1 1 2 2 1 1 1 1 2 2 3 3 2 2 3 3 3 2 2 2 1 1 2 1 3 1 1 1 1 1 1 1 2 1 1 1 2 1 1 2 3 2 2 4 3 3 3 4 2 1 2 3 4 4 4 4 4 3 4 5
21 20 20 19 19 18 18 17 17 17 17 18 18 15 12 15 16 14 7 2 0 3 5 3 1 3 2 2 0 1 2 2 1 1 1 2 3 3 3 2 2 3 3 3 2 2 1 1 2 1 1 2 1 1 1 2 2 1 0 0 1 2 1 2 2 2 1 1 1 1 3 3 2 1 3 2 1 2 4 4 3 3 4 4 3 4 4
20 20 20 20 19 18 17 16 16 17 16 16 17 15 14 14 15 13 8 2 1 1 3 1 1 3 5 6 6 5 4 4 3 1 2 3 2 3 2 2 2 1 1 1 2 1 0 0 1 1 1 1 1 1 1 2 3 3 1 1 1 2 2 1 2 1 1 1 2 3 4 4 3 2 2 2 2 4 4 4 4 4 3 3 3 4 5
20 20 19 19 18 18 17 16 16 16 15 15 15 15 14 16 14 12 10 5 4 5 6 7 10 13 12 9 6 6 7 8 8 5 3 2 3 0 3 2 2 2 1 2 2 1 1 1 0 0 0 1 1 1 0 1 2 4 1 1 1 3 3 2 2 2 2 4 5 5 5 4 2 3 4 4 5 7 5 5 5 4 3 2 3 5 7
20 20 20 19 18 18 17 17 16 16 15 15 15 14 15 17 15 13 10 5 4 6 9 10 11 10 5 2 4 7 7 7 8 8 6 3 2 2 2 2 1 1 1 2 2 2 2 1 1 1 1 2 1 0 1 1 2 3 1 1 3 4 1 2 2 2 3 3 5 4 5 6 5 4 5 5 6 7 6 4 5 5 5 4 4 6 7
20 19 20 19 18 18 17 17 16 15 15 14 14 15 16 15 13 13 9 2 1 3 4 4 3 1 2 5 11 9 3 4 5 7 6 6 3 1 2 3 2 0 2 2 3 3 2 1 1 1 1 2 2 2 1 2 2 2 1 2 4 3 0 1 1 2 3 3 4 3 4 7 6 5 6 7 7 6 5 4 5 6 6 6 6 7 7
21 19 19 19 19 18 18 17 15 15 15 14 15 17 17 13 10 9 5 1 1 1 1 3 3 3 2 11 11 3 1 4 6 6 7 10 10 6 3 3 2 1 2 3 2 3 2 1 1 1 2 2 1 2 2 2 2 2 2 3 4 2 1 1 2 3 3 4 7 8 8 9 8 6 6 7 7 7 6 5 5 6 6 7 7 7 6
21 20 20 19 19 19 17 16 15 15 15 14 15 17 15 10 7 4 1 1 1 2 1 3 4 4 9 13 8 3 6 9 8 7 7 10 13 15 12 6 3 1 2 3 2 3 3 2 2 2 2 2 2 2 3 3 1 1 3 4 3 2 1 2 2 3 4 6 8 8 7 8 8 7 6 5 6 7 7 7 7 7 7 8 9 9 8
22 21 20 20 19 19 17 16 15 15 14 14 14 13 9 5 3 3 3 3 2 2 2 2 3 9 14 10 7 9 11 10 10 9 8 8 11 16 16 9 3 1 3 3 1 2 3 2 1 3 2 2 2 2 2 2 1 1 4 4 1 1 3 3 1 3 4 6 7 6 4 6 9 9 8 6 6 7 8 8 8 8 9 9 9 10 10
23 22 21 21 20 19 16 15 15 14 13 13 10 8 7 6 4 3 4 5 3 1 2 2 5 10 12 9 10 14 14 12 13 11 7 5 7 13 15 9 3 2 3 2 1 2 3 1 2 2 1 1 1 1 1 0 1 2 5 4 3 3 5 4 3 4 6 8 9 7 4 6 9 10 10 7 5 6 9 10 10 10 10 9 8 9 10
24 23 22 22 22 19 15 13 13 12 12 12 8 4 4 7 7 5 6 7 5 1 2 3 4 5 5 8 13 15 15 16 16 12 8 4 2 9 12 9 5 3 2 3 2 2 2 2 2 2 2 2 2 1 1 1 1 4 6 4 4 4 4 4 5 6 7 9 10 7 6 9 11 11 10 8 6 7 10 11 11 10 10 9 8 8 9
25 24 23 22 23 20 14 11 11 11 10 10 7 3 2 3 4 4 6 8 8 4 0 1 3 3 5 7 10 12 16 18 16 14 12 8 3 3 6 6 4 3 2 2 1 2 2 1 1 2 3 2 2 1 1 2 2 4 5 3 2 3 4 4 5 6 7 9 9 8 10 12 11 11 10 9 9 10 10 10 10 9 10 10 9 7 9
26 25 25 24 24 20 14 10 9 9 9 7 3 2 1 1 2 3 4 8 10 5 2 0 2 3 5 4 4 8 16 16 12 10 9 7 5 2 2 4 2 2 3 1 1 2 2 2 1 1 2 1 3 2 2 2 2 4 4 4 4 4 5 6 6 6 7 9 10 10 12 11 9 9 9 7 8 9 8 8 10 12 12 12 11 10 12
26 27 28 27 24 18 12 9 8 8 8 6 1 2 1 3 6 8 9 10 8 3 3 1 2 2 3 4 6 9 12 9 6 6 5 4 4 5 2 2 1 1 3 2 1 1 2 2 2 1 1 2 3 2 1 2 3 4 4 6 6 6 6 7 8 7 7 8 8 9 12 10 7 7 8 7 7 9 10 10 13 16 14 12 12 13 14
28 29 29 26 20 14 10 8 8 8 8 4 1 3 6 6 6 7 6 5 2 2 3 2 2 1 2 4 6 7 7 5 4 4 4 3 3 4 3 2 2 1 1 1 1 2 1 1 1 1 2 1 3 2 1 3 5 5 5 7 7 7 7 8 8 8 8 7 6 7 11 11 10 11 12 11 10 12 13 13 13 13 10 8 8 10 10
30 30 27 21 15 9 6 5 4 4 3 3 3 4 9 8 5 4 3 0 2 3 2 2 2 1 3 3 3 4 6 4 2 2 3 3 3 2 2 3 3 2 1 1 1 1 1 0 1 1 2 1 2 1 2 5 6 5 6 8 7 8 9 8 7 7 8 6 5 8 11 13 13 13 12 11 11 12 11 10 8 7 6 6 7 7 6
31 28 21 14 8 5 5 6 5 3 5 4 3 7 11 10 6 3 1 0 2 2 1 2 2 0 2 3 3 4 5 4 2 1 1 3 3 2 0 1 3 2 1 1 1 0 1 1 2 1 2 1 0 1 3 5 6 7 8 9 9 9 9 9 8 9 9 7 7 9 11 11 11 11 9 9 8 7 6 6 5 5 5 7 7 6 5
30 25 16 7 4 6 7 7 7 6 4 5 10 11 9 7 4 1 1 0 2 1 1 1 1 1 1 0 3 4 5 4 3 2 1 2 3 2 2 2 2 2 1 2 1 1 2 1 1 1 2 1 2 4 4 4 5 8 9 10 10 9 9 10 11 11 10 9 9 10 9 9 9 8 6 6 5 4 5 6 6 5 6 7 6 5 5
28 20 12 3 2 3 4 4 5 6 9 14 14 8 2 1 1 1 1 2 2 1 2 2 1 2 2 2 3 3 3 3 2 2 2 2 2 2 2 2 1 2 2 3 1 2 1 0 1 0 2 3 4 5 5 4 5 8 9 10 10 8 9 10 11 10 11 11 10 9 8 8 8 6 5 6 7 6 6 7 6 6 6 6 6 6 4
24 16 10 5 2 2 2 1 6 14 16 13 6 0 1 1 1 1 2 2 2 2 2 2 1 2 1 1 2 2 2 2 2 2 2 1 2 2 2 1 1 1 2 3 3 2 1 3 2 1 4 4 3 4 5 5 5 6 8 9 9 8 8 9 8 8 9 10 10 9 9 10 10 8 7 7 8 7 7 7 6 5 4 4 3 2 3
22 16 11 7 3 0 3 8 15 16 10 2 2 2 1 1 1 1 2 1 1 2 1 1 2 1 2 2 4 3 1 0 3 2 2 1 1 1 1 1 1 1 2 3 3 1 2 3 2 1 3 4 3 4 5 5 6 7 8 9 9 9 9 8 7 6 7 8 10 10 10 10 10 9 7 6 7 7 7 5 3 3 4 5 7 8 9
19 13 8 4 2 6 13 17 14 6 0 2 1 1 1 1 1 0 0 1 1 1 1 1 2 2 3 3 4 3 2 2 1 2 2 2 1 0 0 1 2 0 1 3 3 1 1 2 2 2 2 4 4 5 6 7 7 8 9 8 9 10 9 7 7 7 7 8 10 11 10 10 10 9 8 7 7 6 3 3 7 9 10 12 13 13 12
15 9 5 5 10 17 19 15 7 2 2 1 2 1 1 1 1 0 1 1 1 3 2 1 0 2 2 3 3 3 3 3 1 2 1 2 2 0 1 2 1 1 0 4 3 2 2 0 2 2 4 5 4 6 7 8 8 9 10 9 9 9 8 6 7 8 9 8 8 9 11 11 10 9 7 5 3 2 4 7 10 13 15 16 17 17 17
16 14 13 14 16 16 12 6 2 1 1 2 1 1 1 1 1 1 1 1 2 2 1 2 2 3 3 4 4 3 3 2 1 2 1 2 2 1 1 1 2 2 2 4 1 3 2 1 2 3 5 5 5 7 8 8 10 11 11 9 8 6 5 5 6 8 10 9 7 7 9 9 8 6 5 6 9 10 9 10 14 17 20 21 22 22 20
18 14 10 8 7 5 3 2 1 1 1 2 1 1 2 2 1 1 2 2 1 1 1 2 2 2 1 2 2 2 2 1 0 1 1 2 2 1 2 2 1 1 3 1 2 3 1 2 3 4 5 5 6 7 8 9 10 10 9 7 7 6 7 6 7 8 10 10 9 8 8 7 9 11 13 15 16 14 14 15 18 19 21 22 23 22 20
13 7 2 1 2 1 1 1 1 1 1 1 1 1 0 2 2 1 1 2 2 1 2 2 1 2 2 1 1 1 1 1 1 1 0 1 1 2 1 1 2 2 1 2 2 1 2 3 4 5 5 5 6 7 8 9 9 8 7 6 6 7 8 7 7 7 8 9 9 9 8 10 13 16 16 17 17 16 16 17 19 20 21 22 22 21 20
7 3 3 3 2 1 0 1 1 0 1 1 1 2 2 2 3 3 2 3 2 2 3 3 1 1 3 2 1 1 1 1 1 0 1 1 1 1 1 3 1 1 2 2 2 2 3 4 4 5 5 6 7 8 8 8 8 7 5 5 5 6 6 6 6 6 6 7 8 9 9 11 14 16 17 18 20 20 19 18 18 20 21 21 20 20 19
2 1 2 2 1 1 0 0 1 1 1 1 2 3 3 3 4 4 3 2 2 3 5 4 2 2 2 2 1 1 1 1 0 1 0 2 1 2 3 1 1 3 3 2 2 2 4 5 5 4 6 7 7 7 8 8 6 5 5 5 4 5 5 6 6 6 6 7 8 10 11 12 14 16 16 18 21 22 20 19 19 20 20 19 18 18 18
1 0 2 2 1 2 1 1 2 2 2 2 2 3 3 3 3 3 3 3 3 4 4 3 2 1 2 1 1 2 1 1 0 2 0 2 0 2 1 1 1 0 1 1 3 4 5 5 5 5 6 6 7 7 8 7 5 5 6 6 5 5 5 6 6 7 8 9 11 11 11 13 15 15 16 18 19 20 19 19 20 21 20 19 18 19 19
0 0 2 2 1 2 1 2 2 2 2 2 3 2 2 1 3 4 4 3 3 3 4 3 2 2 2 1 0 1 2 1 1 2 1 1 0 1 2 2 2 1 2 3 4 5 4 5 5 5 5 6 6 6 7 6 5 5 5 6 5 5 6 6 6 7 8 11 12 12 12 13 15 15 15 16 16 17 18 18 19 19 19 19 19 18 18
1 0 1 1 2 2 3 2 2 3 3 2 2 2 2 2 3 5 4 3 2 3 3 2 2 1 2 1 1 0 1 1 0 1 1 2 0 0 0 0 2 3 3 4 4 4 5 5 5 5 5 5 6 6 6 6 5 4 4 5 5 5 7 8 8 8 9 11 13 13 13 14 14 14 14 14 14 15 16 17 17 16 16 17 18 18 17
1 1 1 2 2 2 2 1 2 3 4 3 3 3 3 3 4 4 3 2 2 3 2 1 1 1 1 1 2 1 2 2 1 1 1 1 1 1 1 1 3 4 4 4 4 5 5 5 4 5 5 5 5 5 5 5 5 5 5 5 5 6 8 8 9 10 11 11 13 14 15 15 14 13 13 13 14 16 17 16 15 15 15 16 18 19 18
1 1 2 3 3 3 2 0 2 4 5 4 4 4 3 2 3 4 2 1 3 3 2 1 1 1 1 1 0 1 2 1 1 1 1 2 2 3 2 4 5 5 4 5 5 5 5 5 4 4 4 5 5 4 4 5 6 8 8 6 5 8 8 9 9 11 11 12 14 15 15 14 14 15 15 16 17 18 16 14 13 14 15 16 17 19 18
1 1 2 3 3 4 3 2 3 4 4 5 4 3 2 3 5 3 0 2 1 1 2 1 1 2 1 2 2 1 0 0 1 0 2 3 2 3 4 5 5 5 4 5 5 5 5 5 4 4 4 4 4 4 5 6 6 8 10 8 5 7 8 8 9 9 10 12 13 14 14 14 15 17 17 17 16 13 11 10 12 15 16 16 17 18 18
Wind_Direction
8 7 7 7 8 8 7 8 7 3 360 360 360 357 14 73 274 306 356 351 345 73 46 308 27 64 255 296 263 256 292 302 329 336 348 7 7 6 11 180 180 204 196 164 166 169 197 189 178 197 145 121 227 294 325 322 35 66 31 305 324 97 76 43 297 296 303 302 324 11 48 94 100 33 50 109 135 127 145 178 174 167 186 141 124 253 268
8 7 6 5 5 6 6 7 7 6 3 359 357 359 108 319 256 285 1 2 19 113 188 272 10 309 315 353 330 305 249 214 348 327 307 315 345 13 328 229 194 159 84 99 149 188 212 200 214 159 131 170 251 334 357 11 63 60 274 240 278 296 43 83 20 334 332 337 348 352 353 35 99 298 331 68 89 89 98 93 84 142 217 157 159 237 251
9 8 7 5 4 4 5 6 5 5 4 359 358 360 256 344 293 268 355 16 46 117 170 146 147 312 355 353 319 325 315 270 236 223 264 295 159 139 296 286 80 60 52 49 41 47 68 288 326 55 66 288 297 356 5 20 49 39 159 146 170 196 183 140 135 231 249 270 281 265 283 319 335 312 310 338 91 100 120 68 89 196 244 170 167 225 267
10 9 8 6 5 3 4 5 5 4 2 359 359 12 11 21 9 306 334 15 44 84 84 89 110 70 32 338 305 349 324 303 300 194 203 329 83 87 337 331 41 42 46 49 18 7 5 360 49 68 353 284 288 336 353 13 13 17 45 49 89 118 181 183 161 185 201 200 224 225 186 214 273 286 271 263 131 106 109 103 137 190 202 208 209 199 294
11 10 9 8 7 4 4 6 6 5 3 359 357 29 54 64 60 13 344 344 17 30 12 37 52 17 133 254 309 355 326 309 323 354 24 45 58 67 20 14 49 77 83 96 92 331 354 5 76 99 292 263 285 317 346 11 355 6 28 15 65 94 334 247 166 200 218 206 225 228 159 207 237 233 244 257 255 126 129 166 202 169 132 265 242 193 207
11 11 10 10 9 7 7 8 8 9 5 1 5 50 37 48 105 75 41 300 339 12 347 1 11 344 225 180 339 12 8 346 329 325 345 21 35 44 7 11 24 94 143 129 148 340 357 350 6 108 343 310 327 343 17 11 352 12 23 355 72 113 247 239 171 253 268 246 249 244 182 237 246 225 238 249 223 185 190 209 200 156 179 248 231 183 208
13 12 11 11 10 9 9 9 11 14 10 14 41 57 357 40 59 328 2 56 211 263 318 343 22 3 352 2 17 35 18 352 303 288 337 357 358 52 104 318 334 352 59 118 133 208 194 317 298 193 142 348 342 351 349 304 345 36 47 355 69 123 249 227 160 297 303 278 260 236 199 251 280 247 242 242 217 205 212 225 207 187 219 245 217 195 227
13 13 13 13 12 12 11 11 13 16 17 32 56 54 9 44 35 323 14 31 320 291 340 22 68 16 1 14 11 22 22 353 321 297 359 338 325 30 95 250 292 355 45 102 137 222 182 174 247 183 145 338 251 230 244 245 336 23 59 335 6 90 262 227 114 339 298 285 279 242 192 204 244 256 252 247 243 233 229 233 216 203 243 256 236 233 252
14 14 14 13 14 14 13 13 13 17 24 40 60 42 10 6 259 337 66 11 341 346 351 38 81 26 4 18 337 330 331 353 337 294 252 97 2 356 32 217 268 24 37 66 347 290 186 182 211 181 164 210 210 218 215 180 339 352 68 243 2 87 252 355 70 318 269 258 271 273 276 264 257 258 251 236 234 230 221 215 196 190 224 252 254 250 256
14 14 14 14 15 16 15 15 15 18 29 43 60 19 6 4 324 21 76 258 346 8 350 22 77 90 347 332 313 302 292 320 356 298 301 46 47 350 336 114 92 26 25 36 340 308 253 224 230 197 175 197 207 216 195 159 159 230 176 238 255 154 182 186 124 242 263 250 244 264 351 324 271 248 224 218 220 225 231 243 223 204 201 221 237 237 241
14 14 14 14 16 16 17 18 17 20 30 41 53 26 9 6 309 360 47 81 334 355 28 24 49 79 1 345 324 307 314 333 6 40 292 7 21 7 47 69 59 69 174 310 310 289 255 239 236 164 125 66 290 232 139 169 218 186 161 207 291 157 183 211 170 201 264 279 309 27 353 273 254 240 213 212 219 224 229 239 240 227 213 215 235 258 273
13 13 14 14 15 16 18 19 18 21 29 37 44 35 18 10 277 21 63 90 302 346 57 49 68 356 327 341 330 295 305 317 322 290 241 298 348 7 46 58 52 215 288 315 320 306 257 256 355 47 46 15 350 1 25 315 286 258 177 187 220 166 186 220 168 170 243 289 35 16 265 248 256 296 277 222 204 203 218 244 266 267 267 270 286 298 273
12 12 13 13 14 15 17 19 18 21 26 31 38 36 25 20 34 81 79 102 276 343 28 318 324 330 311 336 338 296 289 298 299 287 211 260 342 4 22 59 85 282 307 324 343 10 7 329 2 354 339 357 359 343 320 275 274 282 226 192 190 174 170 186 167 163 204 120 122 191 245 270 304 322 324 3 42 67 207 281 314 326 278 254 286 290 272
10 11 11 11 13 14 15 18 18 18 22 28 35 36 29 27 33 47 88 85 274 278 327 324 337 344 328 336 340 317 323 339 335 345 8 314 6 1 336 290 293 299 304 333 10 35 63 3 19 4 328 2 10 324 300 277 253 256 274 231 191 165 146 155 210 206 163 168 210 242 292 310 314 323 343 18 18 28 156 227 297 309 264 192 336 331 318
9 10 10 10 11 12 13 16 17 16 17 22 33 36 30 27 27 21 122 103 13 302 24 75 306 313 315 319 347 1 357 352 345 340 328 320 319 300 280 293 309 313 315 112 37 51 90 201 48 24 320 325 327 285 312 324 285 279 343 17 154 150 159 167 189 228 118 125 284 309 324 288 268 265 283 268 201 213 180 143 250 301 292 203 354 350 323
8 9 9 9 10 11 12 14 15 14 13 16 29 38 31 25 25 20 33 110 90 318 290 223 217 241 298 308 352 39 20 331 333 336 334 335 324 307 305 310 319 334 36 67 54 85 86 200 180 163 215 199 180 254 287 329 306 316 357 36 68 64 47 118 133 228 102 126 225 241 214 239 246 257 279 279 182 175 107 81 229 276 299 265 302 346 322
6 7 7 7 9 9 10 12 13 13 11 10 21 36 33 26 24 21 22 80 73 292 259 298 43 67 32 346 330 8 18 309 347 8 315 312 312 316 326 328 333 358 44 49 37 69 84 120 143 136 237 221 153 202 253 140 298 303 333 9 35 29 20 68 120 225 206 156 205 238 230 238 237 247 274 284 148 121 92 4 258 269 290 263 205 301 303
3 4 4 5 7 7 8 9 9 11 9 6 11 28 33 27 24 27 35 60 46 287 257 341 46 73 109 125 239 268 327 350 8 359 295 305 326 321 319 325 338 349 13 55 57 58 82 123 161 153 232 267 107 154 256 292 202 263 309 3 14 6 355 35 143 200 207 187 218 267 264 245 239 252 267 273 149 118 135 221 232 263 296 283 227 252 273
2 1 1 3 3 3 5 6 6 7 7 3 4 14 24 22 22 29 36 46 62 289 274 304 8 201 185 87 274 289 340 21 74 37 354 332 316 304 301 308 342 350 11 59 66 65 78 352 305 126 148 304 342 116 253 254 218 265 355 15 350 354 336 337 79 159 201 183 190 286 285 248 214 244 275 294 105 171 227 229 224 245 281 292 277 266 268
360 359 359 360 0 0 2 2 2 2 2 2 1 1 6 12 17 23 29 29 325 293 282 282 201 185 158 62 280 270 8 20 35 90 146 238 287 3 21 350 336 357 15 45 40 30 70 354 320 37 95 298 333 62 326 300 274 257 156 25 246 176 209 297 254 209 225 139 140 285 273 241 198 240 317 8 102 232 267 284 267 233 247 279 281 268 265
358 358 357 357 357 358 358 358 358 358 359 0 358 354 353 358 5 7 1 349 177 258 294 310 249 268 288 289 264 237 215 219 235 220 192 239 290 52 90 240 263 351 28 80 75 13 44 158 317 348 13 306 325 5 359 342 312 283 208 136 290 205 190 247 247 216 140 163 193 210 221 214 180 171 215 202 216 257 278 286 276 255 249 269 275 273 269
355 355 355 354 354 355 355 355 354 355 355 354 352 350 345 344 351 355 342 312 220 229 268 284 291 293 292 287 280 268 250 247 256 250 208 235 313 64 154 216 249 217 188 108 82 347 323 113 64 350 313 289 287 303 64 97 295 294 303 77 259 232 193 185 222 234 202 202 228 251 260 263 234 197 210 232 269 284 272 244 252 263 255 252 278 288 285
353 352 351 351 350 351 351 350 350 350 351 350 349 346 337 335 341 346 337 307 242 258 270 276 291 298 287 286 334 320 290 262 264 258 223 201 302 294 198 209 251 238 185 128 144 176 178 170 136 91 243 237 187 122 337 289 243 267 290 266 257 258 219 157 196 273 290 260 260 270 275 280 275 245 238 252 274 284 277 248 248 258 258 262 271 271 275
350 350 349 348 347 347 346 347 348 349 351 352 349 341 335 334 338 342 344 1 15 318 293 294 313 222 194 320 329 329 294 224 254 273 252 212 200 314 287 223 197 342 300 232 175 128 121 176 111 99 222 224 160 164 251 266 243 216 225 299 287 281 321 126 213 291 311 292 288 290 271 271 277 278 279 279 272 268 264 248 246 256 266 272 271 266 268
347 346 347 346 345 344 343 344 347 349 350 350 345 339 337 338 338 340 349 39 24 21 16 326 302 187 295 325 326 325 264 286 289 290 265 229 213 215 237 221 192 223 247 221 152 106 105 150 121 128 218 222 178 178 202 230 238 188 182 262 269 268 21 18 233 240 246 257 273 283 281 280 282 278 276 284 286 281 273 266 266 273 278 277 274 272 272
345 344 344 344 343 342 342 341 342 343 344 344 344 342 340 339 342 350 356 304 359 80 55 311 273 288 328 330 323 328 338 327 315 300 274 247 233 233 239 250 270 250 140 106 108 135 136 121 124 154 203 213 187 182 198 218 218 175 224 242 218 180 278 273 238 257 281 275 274 284 296 295 289 279 264 256 263 272 280 286 289 289 287 284 281 275 266
343 343 343 342 341 340 338 335 335 336 338 342 347 352 351 348 7 38 31 15 29 39 355 300 267 307 320 318 315 334 341 339 332 320 293 263 244 239 239 241 246 181 109 81 53 122 106 78 181 188 208 228 189 177 214 232 169 187 252 256 147 154 256 256 250 281 279 269 271 283 299 291 284 287 284 267 256 265 277 282 282 278 273 272 273 275 273
344 343 341 339 337 334 331 332 336 337 337 343 356 18 32 35 46 61 44 38 59 113 270 260 278 307 314 308 316 335 346 346 342 336 318 285 241 230 229 220 188 153 135 127 141 138 131 168 207 186 198 229 209 215 263 359 73 251 258 241 166 196 231 214 209 246 253 261 272 274 266 267 274 279 283 278 267 268 273 275 276 274 270 262 258 267 276
342 341 339 336 334 330 323 326 338 341 337 342 357 47 74 54 51 67 72 58 50 64 252 293 301 304 308 306 313 330 349 352 348 348 350 357 196 209 215 203 177 166 143 126 131 161 184 198 195 197 209 184 172 241 290 104 162 247 256 234 196 224 247 231 240 264 272 277 283 283 275 274 276 278 283 284 276 265 267 271 272 272 271 265 255 253 257
340 339 337 333 331 328 318 313 330 338 331 334 352 26 69 51 46 66 69 42 20 14 67 336 315 299 305 303 303 321 340 347 351 355 357 4 21 200 200 185 167 144 108 98 154 188 210 234 229 259 264 192 137 148 203 164 208 255 276 293 293 298 303 283 263 265 270 278 287 289 281 279 282 285 285 278 269 267 268 269 268 265 264 263 258 253 253
338 336 333 330 329 327 314 294 305 321 316 315 349 47 72 359 318 307 324 340 346 4 90 103 298 304 317 311 288 314 327 333 342 348 347 351 2 7 148 160 169 160 141 149 220 187 194 219 219 275 284 159 126 140 171 171 229 266 302 342 332 302 294 286 270 256 259 276 288 288 281 279 282 287 285 276 272 276 278 275 272 270 268 266 263 262 265
336 333 333 333 330 326 311 280 275 291 297 295 329 72 24 325 315 303 293 303 322 17 104 34 341 332 322 312 304 314 321 323 335 350 352 358 3 1 22 100 133 159 137 129 181 225 210 192 180 257 275 132 112 114 154 177 221 255 298 325 312 291 281 281 281 276 271 275 283 288 290 288 275 267 276 290 298 295 289 284 282 280 278 277 274 273 274
335 335 337 336 331 325 310 281 264 267 274 264 132 55 17 358 338 318 296 291 324 102 124 86 23 314 290 303 313 329 339 336 343 3 357 339 349 355 349 12 41 41 80 124 189 238 230 141 134 290 300 49 95 101 184 225 233 254 288 300 294 291 290 285 281 280 276 267 255 261 277 284 278 272 277 285 288 285 280 279 285 288 286 283 282 284 287
338 341 341 339 335 331 325 310 273 246 228 159 114 27 2 357 356 352 340 349 94 80 78 86 86 293 303 319 320 343 1 354 331 360 343 321 344 3 310 322 8 14 292 222 167 298 319 43 160 242 292 359 81 104 250 258 260 273 293 297 296 302 304 296 286 283 284 281 266 258 266 274 274 273 276 279 279 280 281 281 284 290 292 286 280 283 290
342 345 345 347 0 30 53 59 64 94 114 101 31 348 350 353 360 14 3 69 73 41 2 62 92 312 346 356 313 319 355 352 296 256 270 298 332 360 226 344 3 345 272 289 45 350 289 228 176 227 284 310 123 225 239 256 281 299 306 307 311 314 309 301 296 295 296 298 293 286 286 286 282 276 275 277 279 285 291 288 280 277 281 284 283 285 290
345 348 349 2 63 77 74 67 61 69 67 351 328 330 345 355 3 58 153 72 61 119 173 62 69 155 134 182 267 300 351 352 307 282 280 300 323 350 71 64 343 288 282 40 25 280 270 207 160 288 306 241 213 234 223 230 283 302 306 306 307 307 299 293 293 297 300 303 302 299 301 305 302 293 285 284 289 293 295 294 293 287 281 283 290 290 279
347 350 353 6 109 58 42 57 49 16 340 322 318 322 348 5 2 33 35 19 24 75 114 106 195 211 171 193 247 303 349 338 313 330 334 309 304 325 41 61 288 283 3 14 312 240 272 29 111 231 261 225 224 243 235 233 276 295 303 303 301 298 293 289 291 297 303 307 309 308 308 312 311 307 304 307 311 310 303 297 294 290 287 291 297 290 275
347 355 8 23 37 34 51 27 337 329 323 316 311 56 118 97 52 29 20 18 352 350 64 115 222 259 146 191 251 281 301 302 348 360 321 285 308 334 18 47 255 279 349 316 266 228 29 24 56 207 254 263 269 262 253 256 273 286 294 297 296 296 293 289 292 301 308 313 315 314 314 315 314 312 313 312 310 307 299 291 287 286 286 291 306 351 56
353 2 9 14 29 93 289 313 319 318 315 308 135 131 10 29 60 21 345 5 343 324 26 142 239 230 166 211 272 277 225 292 3 347 294 290 318 311 340 348 303 13 24 311 288 330 9 337 346 345 291 293 296 278 276 291 298 296 296 295 293 293 293 292 291 291 292 299 304 306 309 310 307 305 306 303 299 298 298 302 335 35 58 62 63 66 71
359 6 8 11 342 303 310 320 327 327 92 108 70 30 30 45 79 203 340 25 359 273 214 188 230 225 187 212 276 279 210 187 261 274 254 263 264 214 59 299 272 22 25 290 282 10 39 286 323 352 287 266 277 297 307 311 304 297 298 300 299 299 300 298 289 280 278 286 296 300 302 299 295 294 292 288 289 299 330 51 63 67 74 76 73 72 75
352 352 334 302 303 307 313 325 344 61 108 52 21 50 60 317 275 189 82 41 302 266 238 160 191 280 238 192 214 253 243 223 188 125 127 285 288 67 58 281 277 64 17 258 258 60 68 343 311 298 254 248 275 305 311 310 307 307 309 309 307 309 309 304 298 298 302 305 307 307 306 302 297 294 292 290 306 9 67 80 76 73 75 77 77 75 73
325 313 297 289 293 301 312 333 10 48 52 55 45 354 321 274 269 349 3 283 243 258 250 180 197 240 227 183 187 227 246 244 78 83 85 284 281 132 125 308 9 58 243 249 266 56 52 317 289 272 257 265 293 309 313 315 314 313 313 311 313 320 325 323 321 323 325 324 319 314 313 317 327 343 19 67 77 74 72 75 77 76 75 74 74 72 69
322 312 298 292 296 305 322 340 349 26 58 65 45 351 340 334 339 338 309 282 270 274 262 246 255 286 261 195 212 241 244 240 16 85 130 261 281 64 60 25 20 220 238 259 53 52 322 248 242 252 266 291 310 312 315 317 315 314 316 319 326 343 349 344 339 338 338 339 342 342 347 13 37 46 60 76 82 78 72 71 75 79 79 77 75 71 67
331 329 339 342 330 333 338 329 348 85 61 20 97 116 332 309 307 309 295 291 288 279 268 276 320 337 308 270 269 297 290 292 36 58 346 292 345 62 65 265 246 244 282 8 39 342 256 238 234 253 279 309 317 314 317 321 320 321 326 329 340 356 359 351 348 351 351 355 5 14 27 52 64 64 65 71 76 77 74 72 74 78 80 79 76 72 72
345 357 24 10 339 328 44 350 347 26 195 215 175 155 170 218 236 238 243 239 237 281 301 287 223 223 270 288 325 310 295 338 33 325 286 16 31 20 229 231 241 28 30 6 350 329 299 280 271 280 299 311 313 315 320 322 320 324 330 335 347 2 0 354 0 9 5 6 20 34 47 64 72 72 69 70 75 79 80 79 80 81 81 80 78 76 76
16 91 63 39 328 306 103 77 329 329 186 201 195 178 180 209 231 244 256 256 262 293 298 283 240 234 274 288 306 307 334 43 50 258 107 84 66 254 234 219 32 41 40 3 326 290 267 268 274 286 301 307 308 311 315 317 322 336 346 339 343 360 5 5 12 15 12 24 44 55 62 71 78 80 79 77 78 80 82 84 87 88 86 83 82 82 81
20 50 73 87 302 313 346 184 217 223 214 216 214 203 208 239 255 258 262 258 261 278 286 278 260 264 272 261 264 296 325 43 357 274 306 98 207 277 340 33 354 127 119 251 264 253 254 271 284 288 297 306 309 310 316 322 333 351 350 337 336 358 12 19 23 21 23 40 56 63 67 74 80 84 85 83 81 83 86 88 90 92 91 90 89 88 86
191 22 74 116 217 258 232 230 268 272 236 223 231 233 243 286 290 277 261 248 258 290 293 282 284 321 317 312 243 270 294 355 314 277 288 90 80 329 8 8 299 262 182 196 226 244 257 273 283 291 299 306 307 308 317 327 334 344 344 335 336 3 21 26 28 29 39 56 67 70 74 80 83 86 86 84 82 84 89 93 95 96 98 98 95 91 88
177 169 149 172 218 234 222 231 317 311 275 258 275 283 273 266 274 276 267 256 276 296 277 235 185 241 276 277 70 17 296 298 201 296 355 34 51 246 94 267 281 285 253 218 223 247 261 270 289 303 304 304 307 310 317 322 327 335 335 329 340 19 36 33 30 34 45 62 73 78 82 85 87 88 89 87 84 87 94 100 102 102 102 102 100 96 91
180 213 217 199 230 262 268 346 334 296 289 306 310 281 255 252 269 276 270 268 306 326 322 220 157 191 251 329 41 357 278 248 167 112 359 284 203 169 132 227 233 234 236 235 240 254 265 278 300 309 301 301 309 312 317 324 328 326 326 337 14 50 50 40 39 42 47 59 75 84 86 85 85 87 90 93 96 98 99 98 100 101 101 101 100 98 94
184 261 252 218 213 224 233 268 272 268 277 291 284 260 237 239 254 259 274 349 2 357 338 260 189 86 47 45 81 240 252 250 103 112 251 249 189 141 164 234 234 226 235 256 262 263 271 279 281 281 290 302 306 308 320 331 329 321 325 347 49 74 66 50 47 49 52 64 76 81 83 88 94 99 103 104 103 99 94 90 93 100 100 99 99 100 98
203 237 262 251 226 213 217 240 255 250 255 265 262 233 204 227 240 241 313 24 2 285 245 214 128 92 106 213 207 200 226 22 38 327 262 252 212 175 193 221 232 229 237 257 270 276 277 272 255 242 256 276 289 306 323 331 329 325 329 341 34 85 84 71 64 63 66 76 84 86 89 97 105 108 108 106 102 98 93 94 101 106 106 104 104 105 104